NOAA 16 DEB, 41284

Orbit data source: Space-Track

NOAA 16 DEB, 41284 is space debris in SSO originally from a launch on Thu, 21 Sep 2000 UTC launched from the Air Force Western Test Range (AFWTR). Debris objects in space refer to the collection of defunct objects orbiting the Earth. Examples of debris include non-operational satellites, rocket bodies, and fragments generated from explosions, collisions, or faulty payload assembly.

Loading next visibility...
Identifier
41284, 2000-055GL
Orbit
SSO
Country
Flag of USUS
Related business
Manufacturer
Unknown
Mission
Spacecraft
Bus & Motor
Unknown
Mass
Unknown
Launch date (UTC)
2000-09-21 (25 years ago)
Launch vehicle
Unknown
Launch site
Air Force Western Test Range (AFWTR)
Object type
Payload
Rocket body
Debris
Shape & HBR
Unknown shape, 0.1 m
Radar Cross Section
Small (<0.1 m²)

Expand to show TLE details & history
Last TLE update: 22 hours ago

TLE from 22 hours ago
0 NOAA 16 DEB
1 41284U 00055GL  26036.85176478  .00005111  00000-0  29924-2 0  9998
2 41284  98.8572   5.9161 0077673 108.6699 252.2922 14.07173048515720
Epoch: 2026-02-05T20:26Z
TLE epoch observation values (Epoch: 2026-02-05T20:26:32.476Z)
Latitude
-0.00006°
Longitude
-76.71726°
Altitude
889.475 km
Speed
7.398 km/s
True Right ascension
00h 23m 39s
True Declination
0° 00' 00"
Sunlit
Object was in daylight at epoch
Visualization orbit readout
Latitude
Unknown
Longitude
Unknown
Altitude
Unknown
Speed
Unknown
Apparent Right ascension
Unknown
Apparent Declination
Unknown
Sunlit
N/A
Visualization observer readout
Local Sidereal Time
21:00:09
Azimuth
Unknown
Elevation
Unknown
Doppler factor
Unknown
Orbital elements
Apogee altitude
922.514 km
Perigee altitude
809.975 km
Semi-major axis
7,244.381 km
Eccentricity
0.00777
Inclination
98.8572°
RAAN
5.9161°
Arg. of periapsis
108.6699°
True anomaly
251.44683°
Mean anomaly
252.2922°
Eccentric anomaly
251.86926°
Mean motion
3.51999 °/min
Orbital period
102.27 mins
BSTAR
0.0029924
Loading maneuver chart data...
Computing Atmospheric mass density...
Loading historical data...
Loading historical data...
Loading historical data...
Loading historical data...
Loading historical data...
Loading historical data...
Loading historical data...

Documentation

Showing up to 5 results
|